Regional Weather Roundup
Issued by NWS

Home | Current Version | Previous Version | Text Only | Print | Product List | Glossary On
Versions: 1 2 3 4 5 6 7 8 9 10 11 12 13 14 15 16 17 18 19 20 21 22 23 24 25 26 27 28 29 30 31 32 33 34 35 36 37 38 39 40 41 42 43 44 45 46 47 48 49 50
000
ASUS44 KBMX 250710
RWRAL

ALABAMA REGIONAL WEATHER ROUNDUP
NATIONAL WEATHER SERVICE BIRMINGHAM AL
200 AM CDT WED MAY 25 2016

NOTE: "FAIR" INDICATES FEW OR NO CLOUDS BELOW 12,000 FEET
WITH NO SIGNIFICANT WEATHER AND/OR OBSTRUCTIONS TO VISIBILITY.

THE REMARK "TC" DENOTES TEMPERATURE IN DEGREES CELSIUS.

ALZ001>011-014-016>018-020-250800-
NORTH ALABAMA

CITY           SKY/WX    TMP DP  RH WIND       PRES   REMARKS
MUSCLE SHOALS  CLEAR     70  57  63 S10       30.08F
HUNTSVILLE     CLEAR     65  57  75 SE8       30.11F
DECATUR        CLEAR     65  59  81 SE3       30.10F
HALEYVILLE     FAIR      70  58  65 S6        30.12F
GADSDEN        CLEAR     59  58  96 CALM      30.16S
$$

ALZ012-013-022-023-030>036-040>044-250800-
WEST CENTRAL ALABAMA

CITY           SKY/WX    TMP DP  RH WIND       PRES   REMARKS
TUSCALOOSA     CLEAR     65  62  90 CALM      30.13S
$$

ALZ015-024>027-033>036-040>044-250800-
CENTRAL ALABAMA

CITY           SKY/WX    TMP DP  RH WIND       PRES   REMARKS
BIRMINGHAM     CLEAR     67  58  72 CALM      30.16F
MONTGOMERY     CLEAR     68  59  73 SW3       30.15R
SHELBY CO ARPT CLEAR     64  61  90 CALM      30.15S
MAXWELL AFB    CLEAR     64  62  91 CALM      30.14R
GREENVILLE     FAIR      64  59  83 CALM      30.14S
$$

ALZ019-021-028-029-037-038-045>048-250800-
EAST CENTRAL ALABAMA

CITY           SKY/WX    TMP DP  RH WIND       PRES   REMARKS
ANNISTON       CLEAR     63  59  87 CALM      30.16S
ALEXANDER CITY CLEAR     60  60 100 CALM      30.17R
AUBURN           N/A    N/A N/A N/A MISG        N/A
$$

ALZ051>064-250800-
SOUTHWEST ALABAMA

CITY           SKY/WX    TMP DP  RH WIND       PRES   REMARKS
MOBILE         CLEAR     67  66  97 SE3       30.12F
BROOKLEY FIELD CLEAR     68  67  96 S5        30.13S
EVERGREEN      CLEAR     61  59  93 CALM      30.15S FOG
$$

ALZ049-050-065>069-250800-
SOUTHEAST ALABAMA

CITY           SKY/WX    TMP DP  RH WIND       PRES   REMARKS
DOTHAN         CLEAR     66  59  78 CALM      30.18F
OZARK          CLEAR     67  60  77 NW1       30.14F
TROY           CLEAR     63  61  93 CALM      30.16S
EUFAULA        FAIR      60  57  89 CALM      30.14S
$$



USA.gov is the U.S. government's official web portal to all federal, state and local government web resources and services.